This is the latest recevied weather packets stored in our database for station/object OK0EK-11. If no packets are shown the sender has not sent any weather packets the latest 10 day(s).
| Time | Temp. | Humidity | Pressure | Rain* | Wind** | Luminosity | Snow |
|---|---|---|---|---|---|---|---|
| 1787637817 | 13.89° C | 58% | 1017.4 hPa | - | - | - | - |
| 1787637217 | 13.89° C | 57% | 1017.5 hPa | - | - | - | - |
| 1787636617 | 13.89° C | 56% | 1017.6 hPa | - | - | - | - |
| 1787636017 | 14.44° C | 55% | 1017.8 hPa | - | - | - | - |
| 1787635417 | 14.44° C | 55% | 1017.7 hPa | - | - | - | - |
| 1787634818 | 13.89° C | 56% | 1017.6 hPa | - | - | - | - |
| 1787634218 | 13.89° C | 56% | 1017.6 hPa | - | - | - | - |
| 1787633617 | 13.89° C | 56% | 1017.7 hPa | - | - | - | - |
| 1787633076 | 13.89° C | 55% | 1017.7 hPa | - | - | - | - |
| 1787633017 | 13.89° C | 55% | 1017.7 hPa | - | - | - | - |
| 1787632417 | 14.44° C | 55% | 1017.7 hPa | - | - | - | - |
| 1787631818 | 14.44° C | 54% | 1017.8 hPa | - | - | - | - |
| 1787631218 | 14.44° C | 54% | 1017.7 hPa | - | - | - | - |
| 1787630618 | 13.89° C | 57% | 1017.8 hPa | - | - | - | - |
| 1787630018 | 13.33° C | 57% | 1017.9 hPa | - | - | - | - |
| 1787629419 | 13.33° C | 58% | 1017.8 hPa | - | - | - | - |
| 1787628819 | 12.78° C | 60% | 1017.8 hPa | - | - | - | - |
| 1787628219 | 13.33° C | 59% | 1017.9 hPa | - | - | - | - |
| 1787627621 | 13.33° C | 59% | 1017.7 hPa | - | - | - | - |
| 1787627021 | 13.33° C | 59% | 1017.7 hPa | - | - | - | - |
| 1787626422 | 13.33° C | 58% | 1017.9 hPa | - | - | - | - |
| 1787625822 | 13.33° C | 59% | 1018.1 hPa | - | - | - | - |
| 1787625222 | 12.78° C | 59% | 1018.2 hPa | - | - | - | - |
| 1787624624 | 12.78° C | 60% | 1018.2 hPa | - | - | - | - |
| 1787624024 | 12.78° C | 60% | 1018.3 hPa | - | - | - | - |
* Rain since midnight (hover to see other rain measurements)
** Current wind speed in m/s (hover to see current wind gust speed)